Regional Weather Roundup
Issued by NWS Raleigh/Durham, NC

Home | Current Version | Previous Version | Text Only | Print | Product List | Glossary On
Versions: 1 2 3 4 5 6 7 8 9 10 11 12 13 14 15 16 17 18 19 20 21 22 23 24 25 26 27 28 29 30 31 32 33 34 35 36 37 38 39 40 41 42 43 44 45 46 47 48 49 50
000
ASUS42 KRAH 261210
RWRRAH
NORTH CAROLINA WEATHER ROUNDUP
NATIONAL WEATHER SERVICE RALEIGH NC
800 AM EDT FRI AUG 26 2016

NOTE: "FAIR" INDICATES FEW OR NO CLOUDS BELOW 12,000 FEET WITH NO
SIGNIFICANT WEATHER AND/OR OBSTRUCTIONS TO VISIBILITY.

NCZ001-053-055-056-065-067-261300-
WESTERN NORTH CAROLINA

CITY           SKY/WX    TMP DP  RH WIND       PRES   REMARKS
ASHEVILLE      SUNNY     69  65  86 CALM      30.22S
JEFFERSON      FOG       65  64  98 CALM      30.27S VSB 1/2
MORGANTON        N/A     71  71 100 CALM      30.20S
HICKORY        SUNNY     73  72  96 NW3       30.14S
RUTHERFORDTON    N/A     74  71  88 CALM      30.14S
MOUNT AIRY     SUNNY     74  72  92 CALM      30.17S
BOONE          SUNNY     64  64 100 CALM      30.28S FOG
$$

NCZ021-022-025-041-071-084-088-261300-
CENTRAL NORTH CAROLINA

CITY           SKY/WX    TMP DP  RH WIND       PRES   REMARKS
CHARLOTTE      MOSUNNY   78  69  73 NE3       30.12S
GREENSBORO     MOSUNNY   78  72  81 NW3       30.12S
WINSTON-SALEM  SUNNY     77  70  79 NW7       30.13F
RALEIGH-DURHAM MOSUNNY   76  71  85 SW6       30.10S
FORT BRAGG     MOSUNNY   75  71  86 S3        30.10R
FAYETTEVILLE   MOSUNNY   76  70  82 SW6       30.10S
BURLINGTON     SUNNY     74  71  91 CALM      30.11R
LAURINBURG     NOT AVBL
$$

NCZ011-015-027-028-043-044-047-080-103-261300-
NORTHEASTERN NORTH CAROLINA

CITY           SKY/WX    TMP DP  RH WIND       PRES   REMARKS
ROCKY MT-WILSO SUNNY     75  72  90 SW6       30.09S
GREENVILLE     MOSUNNY   73  70  88 SW3       30.12R
WASHINGTON     PTSUNNY   74  68  80 SW5       30.11S
ELIZABETH CITY SUNNY     75  71  87 SW6       30.10R
MANTEO         MOSUNNY   78  71  80 SW5       30.11S
CAPE HATTERAS  CLOUDY    80  69  69 CALM      30.12R
$$

NCZ078-087-090-091-093-098-101-261300-
SOUTHEASTERN NORTH CAROLINA

CITY           SKY/WX    TMP DP  RH WIND       PRES   REMARKS
LUMBERTON      MOSUNNY   74  71  91 CALM      30.11R
GOLDSBORO      MOSUNNY   74  74 100 S5        30.09S
KINSTON        MOSUNNY   73  70  88 S5        30.12S
KENANSVILLE    PTSUNNY   73  70  88 CALM      30.12S
NEW BERN       MOSUNNY   74  70  87 CALM      30.13R
CHERRY POINT   MOSUNNY   74  70  87 CALM      30.13R
BEAUFORT       CLOUDY    76  70  82 CALM      30.12R
JACKSONVILLE   MOSUNNY   75  69  81 CALM      30.11S
WILMINGTON     MOSUNNY   75  71  87 CALM      30.12R
$$




USA.gov is the U.S. government's official web portal to all federal, state and local government web resources and services.